Location: Peterborough
(44.3091°N, 78.3197°W)
Time: 01:56:10
(UTC-04:00)

Vanguard 1 Rocket - Pass Details

Date: 23 March 2023
Orbit: 655 x 4220 km, 34.3° (Epoch: 02 June)

Event Time Altitude Azimuth Distance (km) Brightness Sun altitude
Rises 20:07:05 0° 178° (S) 8,401 12.2 -7.6°
Reaches altitude 10° 20:18:59 10° 156° (SSE) 7,354 11.7 -9.6°
Maximum altitude 20:27:46 13° 135° (SE) 6,787 11.3 -11.2°
Enters shadow 20:33:46 11° 119° (ESE) 6,599 11.1 -12.2°
